QPF
0.03 0.03 0.05 0.06 0.05 0.05 0.05 0.06 0.05 0.06 0.08 0.08 0.08 0.05 0.03 0.03 0.03 0.05 0.08 0.07 0.06 0.06 0.06 0.06 0.05 0.05 0.05 0.06 0.07 0.08 0.09 0.12 0.16 0.18 0.17 0.13 0.08 0.07 0.07 0.09 0.08 0.08 0.09
0.04 0.04 0.05 0.06 0.04 0.03 0.03 0.03 0.03 0.05 0.07 0.09 0.11 0.07 0.04 0.05 0.05 0.05 0.06 0.07 0.06 0.06 0.05 0.05 0.05 0.05 0.05 0.06 0.05 0.07 0.07 0.09 0.11 0.15 0.22 0.20 0.13 0.08 0.06 0.07 0.07 0.08 0.09
0.05 0.05 0.05 0.05 0.05 0.04 0.03 0.02 0.03 0.04 0.05 0.06 0.07 0.07 0.06 0.07 0.07 0.07 0.06 0.06 0.07 0.05 0.05 0.04 0.04 0.04 0.03 0.05 0.04 0.04 0.04 0.06 0.07 0.08 0.14 0.19 0.14 0.10 0.07 0.08 0.08 0.08 0.10
0.04 0.05 0.04 0.04 0.04 0.05 0.05 0.05 0.05 0.05 0.04 0.06 0.06 0.06 0.08 0.09 0.08 0.07 0.05 0.03 0.05 0.05 0.04 0.04 0.03 0.03 0.03 0.04 0.03 0.03 0.03 0.04 0.05 0.05 0.06 0.09 0.08 0.07 0.06 0.07 0.08 0.08 0.09
0.03 0.04 0.03 0.02 0.02 0.03 0.05 0.05 0.05 0.05 0.04 0.05 0.07 0.08 0.09 0.10 0.09 0.07 0.06 0.04 0.04 0.05 0.05 0.04 0.04 0.03 0.03 0.03 0.03 0.03 0.05 0.06 0.05 0.03 0.04 0.05 0.06 0.06 0.06 0.05 0.06 0.07 0.08
0.04 0.05 0.04 0.02 0.02 0.02 0.03 0.04 0.05 0.05 0.05 0.05 0.04 0.06 0.07 0.08 0.09 0.09 0.08 0.05 0.04 0.04 0.05 0.04 0.04 0.03 0.02 0.02 0.04 0.05 0.04 0.05 0.05 0.04 0.03 0.03 0.03 0.05 0.06 0.05 0.04 0.06 0.07
0.06 0.07 0.06 0.05 0.04 0.03 0.04 0.04 0.03 0.03 0.04 0.04 0.04 0.05 0.04 0.04 0.06 0.07 0.07 0.05 0.05 0.04 0.04 0.05 0.04 0.03 0.02 0.02 0.02 0.03 0.03 0.03 0.03 0.03 0.04 0.04 0.03 0.03 0.04 0.05 0.05 0.07 0.07
0.07 0.07 0.08 0.06 0.04 0.04 0.04 0.04 0.04 0.04 0.03 0.03 0.04 0.06 0.06 0.06 0.06 0.06 0.05 0.05 0.05 0.05 0.04 0.05 0.04 0.04 0.03 0.04 0.02 0.02 0.03 0.03 0.02 0.02 0.03 0.05 0.05 0.04 0.04 0.05 0.05 0.05 0.06
0.05 0.06 0.05 0.05 0.04 0.03 0.04 0.04 0.04 0.04 0.04 0.04 0.05 0.07 0.08 0.09 0.09 0.09 0.06 0.05 0.05 0.05 0.05 0.05 0.06 0.07 0.04 0.05 0.04 0.04 0.04 0.04 0.04 0.04 0.04 0.04 0.05 0.05 0.05 0.04 0.05 0.05 0.06
0.05 0.04 0.04 0.04 0.04 0.05 0.06 0.04 0.03 0.05 0.06 0.06 0.07 0.07 0.07 0.08 0.10 0.12 0.10 0.08 0.08 0.07 0.05 0.05 0.06 0.07 0.05 0.04 0.04 0.04 0.03 0.02 0.02 0.02 0.03 0.03 0.03 0.04 0.05 0.05 0.04 0.04 0.06
0.03 0.03 0.04 0.04 0.05 0.06 0.07 0.06 0.06 0.04 0.04 0.06 0.08 0.08 0.08 0.09 0.10 0.11 0.10 0.09 0.09 0.07 0.06 0.05 0.06 0.08 0.07 0.05 0.05 0.04 0.02 0.01 0.01 0.01 0.01 0.01 0.02 0.03 0.04 0.05 0.05 0.04 0.04
0.04 0.04 0.04 0.04 0.04 0.05 0.05 0.06 0.06 0.05 0.05 0.07 0.09 0.10 0.11 0.11 0.12 0.12 0.11 0.11 0.10 0.07 0.06 0.05 0.05 0.07 0.08 0.07 0.03 0.03 0.02 0.01 0.01 0.01 0.01 0.01 0.01 0.01 0.03 0.04 0.05 0.06 0.05
0.05 0.05 0.05 0.04 0.03 0.04 0.03 0.04 0.05 0.05 0.05 0.06 0.06 0.09 0.10 0.11 0.11 0.11 0.10 0.10 0.10 0.09 0.08 0.05 0.04 0.07 0.07 0.06 0.04 0.03 0.02 0.01 0.01 0.01 0.01 0.01 0.01 0.01 0.01 0.02 0.03 0.05 0.06
0.06 0.04 0.04 0.03 0.03 0.03 0.03 0.03 0.03 0.03 0.03 0.04 0.05 0.07 0.07 0.08 0.08 0.08 0.09 0.09 0.11 0.12 0.10 0.07 0.05 0.05 0.05 0.06 0.06 0.04 0.02 0.02 0.01 0.01 0.01 0.01 0.02 0.02 0.02 0.02 0.03 0.04 0.05
0.06 0.05 0.04 0.04 0.04 0.03 0.03 0.04 0.03 0.03 0.03 0.03 0.03 0.04 0.05 0.06 0.06 0.08 0.08 0.09 0.09 0.09 0.07 0.07 0.06 0.05 0.06 0.06 0.07 0.05 0.05 0.04 0.02 0.02 0.01 0.02 0.02 0.03 0.03 0.03 0.04 0.04 0.05
0.05 0.06 0.04 0.05 0.05 0.05 0.04 0.03 0.02 0.02 0.02 0.03 0.03 0.04 0.05 0.05 0.05 0.06 0.06 0.07 0.06 0.06 0.06 0.04 0.05 0.05 0.06 0.05 0.06 0.07 0.08 0.06 0.04 0.03 0.02 0.03 0.03 0.03 0.05 0.05 0.05 0.05 0.05
0.04 0.03 0.03 0.05 0.06 0.05 0.03 0.02 0.01 0.01 0.01 0.01 0.02 0.02 0.03 0.04 0.04 0.05 0.05 0.05 0.05 0.05 0.05 0.05 0.05 0.07 0.08 0.08 0.08 0.07 0.07 0.07 0.05 0.05 0.04 0.03 0.03 0.04 0.05 0.06 0.05 0.06 0.06
0.04 0.03 0.04 0.04 0.04 0.04 0.03 0.03 0.02 0.02 0.01 0.01 0.01 0.01 0.02 0.03 0.04 0.04 0.04 0.04 0.04 0.05 0.05 0.05 0.07 0.08 0.08 0.08 0.08 0.08 0.05 0.05 0.05 0.04 0.03 0.03 0.03 0.04 0.05 0.06 0.05 0.05 0.05
0.04 0.05 0.04 0.04 0.04 0.03 0.03 0.03 0.02 0.02 0.02 0.02 0.02 0.03 0.03 0.04 0.05 0.05 0.05 0.04 0.04 0.04 0.05 0.05 0.06 0.07 0.08 0.07 0.07 0.08 0.07 0.06 0.03 0.02 0.02 0.02 0.02 0.02 0.02 0.03 0.03 0.03 0.03
0.05 0.05 0.05 0.05 0.04 0.05 0.04 0.03 0.02 0.02 0.03 0.03 0.03 0.03 0.03 0.04 0.05 0.07 0.06 0.05 0.06 0.06 0.07 0.07 0.07 0.08 0.08 0.08 0.08 0.08 0.09 0.09 0.06 0.04 0.03 0.04 0.04 0.03 0.02 0.02 0.03 0.03 0.02
0.04 0.05 0.06 0.06 0.05 0.06 0.05 0.05 0.03 0.03 0.03 0.03 0.04 0.03 0.02 0.03 0.04 0.05 0.06 0.07 0.08 0.08 0.08 0.07 0.07 0.08 0.08 0.08 0.08 0.09 0.08 0.09 0.09 0.06 0.05 0.04 0.05 0.04 0.04 0.03 0.03 0.03 0.03
0.05 0.05 0.04 0.05 0.06 0.05 0.04 0.04 0.04 0.05 0.05 0.04 0.05 0.05 0.04 0.03 0.04 0.04 0.03 0.04 0.05 0.06 0.06 0.06 0.07 0.08 0.08 0.08 0.08 0.09 0.09 0.08 0.08 0.06 0.08 0.06 0.06 0.07 0.05 0.04 0.04 0.03 0.03
0.05 0.04 0.04 0.05 0.05 0.04 0.04 0.03 0.02 0.04 0.05 0.05 0.06 0.07 0.05 0.04 0.05 0.05 0.05 0.04 0.04 0.04 0.04 0.05 0.06 0.07 0.07 0.07 0.08 0.07 0.08 0.08 0.08 0.07 0.08 0.06 0.06 0.06 0.04 0.03 0.04 0.05 0.05
0.06 0.05 0.05 0.06 0.06 0.04 0.03 0.02 0.01 0.03 0.06 0.07 0.07 0.08 0.07 0.07 0.05 0.05 0.05 0.06 0.06 0.07 0.04 0.04 0.05 0.06 0.06 0.06 0.07 0.07 0.07 0.07 0.07 0.07 0.08 0.07 0.06 0.05 0.04 0.04 0.04 0.03 0.02
0.05 0.06 0.06 0.06 0.07 0.05 0.03 0.02 0.02 0.03 0.05 0.07 0.07 0.09 0.08 0.07 0.06 0.05 0.05 0.05 0.07 0.08 0.06 0.05 0.04 0.05 0.04 0.04 0.05 0.06 0.06 0.06 0.05 0.05 0.07 0.08 0.07 0.07 0.07 0.05 0.04 0.03 0.03
0.04 0.05 0.06 0.07 0.07 0.06 0.05 0.03 0.03 0.03 0.04 0.05 0.06 0.08 0.07 0.06 0.05 0.04 0.05 0.06 0.06 0.08 0.07 0.06 0.05 0.05 0.04 0.04 0.04 0.04 0.05 0.06 0.05 0.05 0.04 0.06 0.06 0.07 0.06 0.04 0.04 0.04 0.03
MSLP
1013.15 1013.37 1013.51 1013.60 1013.66 1013.71 1013.75 1013.79 1013.82 1013.83 1013.83 1013.82 1013.84 1013.91 1014.05 1014.29 1014.62 1015.02 1015.43 1015.81 1016.13 1016.35 1016.46 1016.48 1016.45 1016.40 1016.38 1016.39 1016.47 1016.59 1016.74 1016.90 1017.07 1017.22 1017.38 1017.54 1017.73 1017.94 1018.18 1018.44 1018.71 1018.98 1019.23
1013.10 1013.36 1013.55 1013.70 1013.80 1013.88 1013.95 1014.00 1014.04 1014.07 1014.09 1014.11 1014.16 1014.25 1014.41 1014.62 1014.90 1015.22 1015.54 1015.84 1016.09 1016.27 1016.39 1016.46 1016.50 1016.54 1016.59 1016.66 1016.75 1016.84 1016.92 1016.98 1017.03 1017.06 1017.12 1017.20 1017.34 1017.53 1017.79 1018.09 1018.41 1018.73 1019.03
1013.04 1013.33 1013.57 1013.77 1013.92 1014.04 1014.14 1014.22 1014.29 1014.34 1014.39 1014.45 1014.53 1014.64 1014.78 1014.95 1015.15 1015.36 1015.57 1015.75 1015.91 1016.04 1016.15 1016.26 1016.37 1016.50 1016.64 1016.78 1016.90 1016.97 1016.98 1016.94 1016.85 1016.76 1016.69 1016.68 1016.76 1016.94 1017.21 1017.56 1017.95 1018.35 1018.74
1013.00 1013.30 1013.58 1013.82 1014.02 1014.18 1014.32 1014.43 1014.52 1014.61 1014.69 1014.78 1014.88 1015.00 1015.12 1015.24 1015.36 1015.45 1015.52 1015.57 1015.62 1015.68 1015.76 1015.89 1016.07 1016.29 1016.52 1016.73 1016.87 1016.93 1016.89 1016.74 1016.53 1016.30 1016.10 1015.99 1016.01 1016.17 1016.47 1016.88 1017.36 1017.86 1018.35
1012.98 1013.29 1013.58 1013.86 1014.10 1014.30 1014.47 1014.60 1014.72 1014.83 1014.94 1015.06 1015.18 1015.30 1015.40 1015.47 1015.50 1015.48 1015.43 1015.35 1015.28 1015.25 1015.29 1015.42 1015.65 1015.93 1016.24 1016.50 1016.68 1016.73 1016.64 1016.40 1016.07 1015.72 1015.40 1015.20 1015.16 1015.30 1015.62 1016.10 1016.67 1017.28 1017.89
1012.99 1013.29 1013.60 1013.89 1014.16 1014.39 1014.58 1014.73 1014.86 1014.98 1015.11 1015.25 1015.39 1015.51 1015.61 1015.64 1015.61 1015.50 1015.32 1015.12 1014.94 1014.82 1014.81 1014.92 1015.16 1015.48 1015.84 1016.16 1016.36 1016.41 1016.28 1015.97 1015.55 1015.08 1014.67 1014.38 1014.28 1014.40 1014.75 1015.28 1015.93 1016.65 1017.37
1013.00 1013.30 1013.62 1013.93 1014.22 1014.47 1014.66 1014.82 1014.95 1015.07 1015.20 1015.35 1015.50 1015.64 1015.74 1015.76 1015.69 1015.52 1015.26 1014.97 1014.69 1014.48 1014.40 1014.47 1014.69 1015.03 1015.41 1015.75 1015.98 1016.03 1015.87 1015.52 1015.03 1014.48 1013.98 1013.62 1013.47 1013.57 1013.92 1014.49 1015.22 1016.03 1016.85
1013.01 1013.31 1013.65 1013.97 1014.28 1014.53 1014.73 1014.88 1014.99 1015.10 1015.23 1015.38 1015.54 1015.70 1015.82 1015.85 1015.78 1015.58 1015.28 1014.92 1014.56 1014.27 1014.12 1014.13 1014.31 1014.63 1015.01 1015.36 1015.60 1015.65 1015.49 1015.11 1014.58 1013.97 1013.41 1012.99 1012.79 1012.85 1013.20 1013.79 1014.57 1015.44 1016.33
1012.99 1013.30 1013.65 1013.99 1014.31 1014.57 1014.77 1014.90 1015.00 1015.09 1015.20 1015.35 1015.53 1015.71 1015.86 1015.93 1015.88 1015.69 1015.38 1014.99 1014.59 1014.23 1014.00 1013.94 1014.06 1014.33 1014.68 1015.02 1015.26 1015.32 1015.16 1014.78 1014.23 1013.60 1012.99 1012.52 1012.28 1012.31 1012.63 1013.21 1014.00 1014.90 1015.85
1012.92 1013.23 1013.59 1013.96 1014.29 1014.56 1014.75 1014.88 1014.96 1015.04 1015.13 1015.28 1015.47 1015.68 1015.86 1015.98 1015.99 1015.84 1015.56 1015.17 1014.73 1014.33 1014.04 1013.90 1013.95 1014.15 1014.45 1014.76 1014.98 1015.04 1014.90 1014.53 1013.99 1013.35 1012.73 1012.23 1011.94 1011.92 1012.19 1012.74 1013.51 1014.42 1015.39
1012.75 1013.08 1013.45 1013.83 1014.18 1014.46 1014.66 1014.79 1014.86 1014.92 1015.01 1015.15 1015.34 1015.58 1015.81 1015.99 1016.06 1015.98 1015.74 1015.38 1014.95 1014.52 1014.17 1013.96 1013.93 1014.05 1014.28 1014.54 1014.75 1014.81 1014.68 1014.35 1013.83 1013.21 1012.59 1012.06 1011.73 1011.66 1011.88 1012.37 1013.10 1013.99 1014.95
1012.48 1012.80 1013.18 1013.57 1013.94 1014.24 1014.46 1014.59 1014.66 1014.72 1014.80 1014.94 1015.14 1015.40 1015.68 1015.91 1016.05 1016.04 1015.87 1015.55 1015.15 1014.71 1014.33 1014.06 1013.95 1013.99 1014.15 1014.36 1014.53 1014.59 1014.49 1014.19 1013.71 1013.13 1012.52 1012.00 1011.64 1011.52 1011.67 1012.10 1012.76 1013.60 1014.53
1012.10 1012.40 1012.77 1013.17 1013.55 1013.88 1014.12 1014.27 1014.35 1014.41 1014.49 1014.63 1014.83 1015.11 1015.41 1015.69 1015.90 1015.96 1015.87 1015.62 1015.26 1014.85 1014.45 1014.14 1013.96 1013.93 1014.02 1014.18 1014.32 1014.38 1014.30 1014.04 1013.62 1013.09 1012.52 1012.00 1011.63 1011.47 1011.56 1011.91 1012.50 1013.27 1014.15
1011.62 1011.89 1012.24 1012.64 1013.04 1013.38 1013.65 1013.83 1013.93 1014.00 1014.08 1014.20 1014.41 1014.68 1015.00 1015.32 1015.57 1015.71 1015.70 1015.53 1015.23 1014.86 1014.48 1014.15 1013.94 1013.85 1013.88 1013.99 1014.10 1014.16 1014.10 1013.90 1013.55 1013.08 1012.56 1012.08 1011.71 1011.53 1011.56 1011.85 1012.36 1013.05 1013.86
1011.07 1011.31 1011.64 1012.03 1012.43 1012.80 1013.10 1013.30 1013.43 1013.50 1013.57 1013.68 1013.87 1014.13 1014.44 1014.77 1015.07 1015.27 1015.33 1015.25 1015.04 1014.73 1014.39 1014.08 1013.86 1013.74 1013.73 1013.80 1013.90 1013.96 1013.93 1013.79 1013.51 1013.12 1012.68 1012.25 1011.90 1011.71 1011.71 1011.93 1012.36 1012.97 1013.70
1010.50 1010.71 1011.02 1011.41 1011.81 1012.20 1012.52 1012.74 1012.88 1012.96 1013.01 1013.10 1013.24 1013.47 1013.76 1014.08 1014.40 1014.65 1014.79 1014.80 1014.68 1014.46 1014.20 1013.93 1013.73 1013.61 1013.58 1013.63 1013.72 1013.80 1013.81 1013.72 1013.52 1013.22 1012.87 1012.51 1012.21 1012.03 1012.02 1012.19 1012.55 1013.07 1013.71
1009.98 1010.18 1010.47 1010.85 1011.26 1011.65 1011.98 1012.22 1012.36 1012.42 1012.45 1012.49 1012.58 1012.74 1012.99 1013.29 1013.61 1013.89 1014.10 1014.20 1014.19 1014.07 1013.90 1013.71 1013.55 1013.46 1013.44 1013.49 1013.59 1013.68 1013.73 1013.71 1013.60 1013.40 1013.14 1012.86 1012.63 1012.49 1012.47 1012.61 1012.91 1013.35 1013.90
1009.57 1009.76 1010.05 1010.43 1010.83 1011.23 1011.56 1011.79 1011.92 1011.95 1011.93 1011.91 1011.92 1012.02 1012.19 1012.45 1012.75 1013.05 1013.32 1013.50 1013.59 1013.59 1013.53 1013.43 1013.34 1013.29 1013.30 1013.37 1013.48 1013.60 1013.70 1013.74 1013.71 1013.60 1013.45 1013.27 1013.11 1013.02 1013.02 1013.15 1013.40 1013.77 1014.23
1009.30 1009.50 1009.80 1010.17 1010.57 1010.95 1011.27 1011.48 1011.58 1011.56 1011.48 1011.38 1011.32 1011.32 1011.42 1011.61 1011.88 1012.19 1012.49 1012.75 1012.93 1013.04 1013.09 1013.09 1013.08 1013.08 1013.13 1013.23 1013.36 1013.51 1013.65 1013.75 1013.80 1013.78 1013.73 1013.64 1013.57 1013.53 1013.57 1013.70 1013.93 1014.24 1014.64
1009.19 1009.41 1009.72 1010.08 1010.47 1010.83 1011.11 1011.29 1011.34 1011.27 1011.12 1010.94 1010.78 1010.69 1010.70 1010.82 1011.05 1011.34 1011.66 1011.97 1012.23 1012.43 1012.57 1012.66 1012.73 1012.80 1012.89 1013.01 1013.17 1013.34 1013.52 1013.67 1013.79 1013.86 1013.89 1013.90 1013.91 1013.94 1014.01 1014.16 1014.38 1014.67 1015.01
1009.24 1009.48 1009.78 1010.12 1010.48 1010.81 1011.05 1011.18 1011.18 1011.05 1010.83 1010.56 1010.32 1010.14 1010.06 1010.11 1010.27 1010.54 1010.86 1011.19 1011.51 1011.77 1011.99 1012.15 1012.28 1012.40 1012.52 1012.67 1012.84 1013.04 1013.25 1013.44 1013.62 1013.76 1013.87 1013.96 1014.04 1014.14 1014.26 1014.44 1014.66 1014.94 1015.26
1009.42 1009.65 1009.94 1010.25 1010.57 1010.85 1011.04 1011.12 1011.06 1010.87 1010.59 1010.26 1009.93 1009.67 1009.52 1009.49 1009.59 1009.81 1010.11 1010.44 1010.78 1011.08 1011.33 1011.54 1011.71 1011.86 1012.00 1012.17 1012.36 1012.57 1012.80 1013.03 1013.25 1013.45 1013.62 1013.78 1013.93 1014.08 1014.26 1014.47 1014.72 1015.02 1015.34
1009.68 1009.89 1010.13 1010.41 1010.67 1010.90 1011.04 1011.07 1010.96 1010.73 1010.39 1010.01 1009.63 1009.30 1009.08 1008.98 1009.02 1009.19 1009.44 1009.75 1010.07 1010.37 1010.63 1010.85 1011.03 1011.19 1011.35 1011.52 1011.71 1011.93 1012.17 1012.43 1012.68 1012.93 1013.16 1013.37 1013.58 1013.79 1014.01 1014.26 1014.55 1014.87 1015.22
1009.97 1010.13 1010.32 1010.54 1010.75 1010.93 1011.02 1011.01 1010.87 1010.60 1010.24 1009.83 1009.41 1009.04 1008.77 1008.61 1008.59 1008.69 1008.88 1009.13 1009.41 1009.68 1009.92 1010.12 1010.29 1010.44 1010.59 1010.76 1010.95 1011.17 1011.42 1011.70 1011.98 1012.26 1012.53 1012.79 1013.04 1013.30 1013.56 1013.86 1014.18 1014.54 1014.93
1010.23 1010.33 1010.46 1010.62 1010.78 1010.91 1010.97 1010.94 1010.78 1010.51 1010.14 1009.72 1009.29 1008.90 1008.58 1008.38 1008.30 1008.33 1008.45 1008.64 1008.85 1009.06 1009.25 1009.41 1009.55 1009.67 1009.80 1009.95 1010.14 1010.36 1010.62 1010.91 1011.21 1011.52 1011.83 1012.12 1012.41 1012.70 1013.00 1013.33 1013.69 1014.08 1014.51
1010.42 1010.45 1010.54 1010.65 1010.78 1010.88 1010.92 1010.87 1010.72 1010.46 1010.10 1009.69 1009.27 1008.87 1008.53 1008.29 1008.16 1008.12 1008.17 1008.28 1008.41 1008.55 1008.68 1008.78 1008.87 1008.96 1009.06 1009.19 1009.36 1009.58 1009.85 1010.14 1010.46 1010.79 1011.12 1011.43 1011.75 1012.07 1012.40 1012.75 1013.14 1013.56 1014.02
Thickness
5759 5757 5756 5755 5754 5754 5753 5752 5752 5752 5752 5752 5752 5752 5752 5753 5751 5749 5746 5745 5743 5741 5740 5738 5737 5735 5734 5732 5731 5729 5728 5726 5724 5722 5721 5720 5719 5717 5716 5714 5713 5712 5711
5757 5756 5754 5754 5753 5753 5752 5751 5750 5750 5750 5750 5750 5750 5750 5751 5750 5748 5746 5743 5742 5740 5738 5736 5735 5733 5732 5730 5729 5727 5726 5725 5723 5721 5720 5719 5718 5716 5715 5713 5712 5711 5709
5756 5754 5752 5751 5751 5751 5750 5749 5749 5748 5748 5748 5747 5747 5748 5748 5747 5746 5745 5743 5740 5738 5736 5734 5733 5731 5730 5729 5727 5726 5725 5723 5722 5721 5719 5718 5717 5715 5714 5713 5711 5709 5708
5754 5752 5750 5749 5749 5749 5748 5747 5746 5745 5744 5744 5744 5745 5746 5745 5745 5745 5744 5742 5740 5738 5735 5733 5731 5730 5729 5727 5726 5725 5723 5722 5721 5720 5718 5716 5715 5714 5713 5711 5710 5708 5707
5751 5749 5748 5746 5747 5746 5745 5745 5742 5742 5740 5740 5741 5742 5743 5743 5743 5743 5742 5741 5739 5737 5734 5732 5730 5728 5727 5726 5724 5723 5722 5720 5719 5718 5717 5715 5714 5712 5711 5710 5708 5706 5705
5749 5747 5746 5744 5744 5743 5741 5741 5739 5739 5738 5738 5740 5740 5741 5742 5742 5740 5739 5739 5737 5736 5734 5732 5729 5727 5725 5724 5723 5721 5720 5719 5717 5716 5715 5714 5712 5711 5709 5708 5706 5705 5703
5746 5745 5744 5742 5741 5740 5738 5738 5737 5736 5735 5737 5734 5733 5736 5740 5739 5739 5738 5737 5735 5735 5733 5731 5729 5727 5725 5723 5721 5719 5718 5717 5716 5714 5713 5712 5711 5709 5708 5706 5705 5703 5702
5744 5743 5740 5739 5738 5737 5736 5735 5734 5732 5733 5734 5730 5726 5723 5726 5732 5736 5735 5734 5734 5733 5731 5730 5729 5727 5725 5722 5720 5718 5716 5715 5713 5712 5711 5709 5708 5707 5706 5704 5703 5701 5700
5741 5740 5738 5738 5736 5735 5733 5732 5731 5729 5727 5730 5730 5724 5717 5716 5721 5728 5731 5731 5731 5730 5729 5728 5727 5725 5723 5721 5719 5717 5715 5713 5711 5710 5709 5707 5706 5705 5704 5702 5701 5699 5697
5739 5738 5736 5735 5734 5733 5731 5730 5729 5728 5725 5723 5725 5725 5723 5721 5715 5715 5721 5725 5726 5726 5725 5725 5724 5722 5721 5719 5717 5715 5713 5711 5709 5707 5706 5705 5704 5703 5702 5700 5699 5697 5695
5737 5736 5734 5733 5731 5729 5728 5727 5726 5725 5723 5721 5720 5720 5720 5719 5718 5712 5710 5715 5718 5721 5722 5721 5720 5719 5718 5716 5714 5713 5711 5709 5707 5705 5704 5703 5702 5700 5699 5698 5696 5695 5693
5733 5732 5732 5730 5728 5726 5725 5724 5723 5722 5720 5719 5718 5718 5716 5714 5712 5711 5708 5709 5710 5713 5717 5717 5716 5715 5715 5713 5712 5711 5709 5707 5705 5703 5701 5700 5699 5697 5696 5695 5694 5693 5691
5729 5728 5728 5727 5726 5724 5723 5722 5720 5719 5718 5717 5715 5715 5715 5714 5714 5711 5708 5706 5706 5709 5711 5712 5714 5713 5712 5710 5709 5708 5706 5704 5702 5700 5699 5697 5696 5694 5693 5692 5691 5690 5689
5727 5727 5725 5724 5723 5722 5721 5719 5718 5717 5715 5714 5714 5712 5712 5712 5712 5710 5707 5703 5700 5701 5703 5705 5709 5709 5708 5706 5705 5703 5702 5700 5699 5697 5695 5693 5692 5691 5690 5688 5687 5686 5685
5725 5723 5722 5720 5719 5718 5717 5716 5714 5713 5712 5711 5710 5709 5709 5709 5709 5708 5707 5703 5697 5692 5693 5698 5700 5704 5703 5702 5700 5699 5698 5697 5695 5693 5691 5690 5688 5687 5686 5685 5683 5682 5681
5721 5719 5717 5716 5715 5714 5713 5712 5711 5710 5708 5707 5707 5705 5705 5705 5705 5704 5703 5702 5699 5693 5689 5693 5694 5696 5697 5697 5696 5695 5694 5692 5691 5689 5688 5686 5685 5684 5682 5680 5679 5678 5676
5717 5715 5714 5712 5711 5710 5709 5707 5706 5706 5704 5703 5702 5701 5701 5701 5700 5700 5699 5697 5694 5691 5685 5687 5689 5690 5689 5690 5690 5689 5688 5687 5685 5684 5683 5682 5680 5679 5677 5676 5674 5672 5671
5712 5711 5710 5708 5707 5706 5705 5703 5701 5701 5700 5698 5697 5696 5696 5696 5694 5694 5692 5690 5688 5687 5683 5679 5680 5681 5682 5683 5683 5682 5683 5682 5681 5680 5678 5677 5676 5674 5672 5670 5669 5667 5666
5706 5706 5704 5703 5702 5702 5700 5699 5697 5697 5696 5694 5693 5691 5690 5689 5688 5687 5686 5684 5682 5682 5679 5675 5673 5674 5675 5676 5675 5676 5676 5676 5676 5674 5673 5671 5670 5669 5667 5665 5663 5662 5661
5701 5700 5699 5698 5698 5696 5695 5694 5693 5691 5690 5689 5688 5687 5685 5684 5682 5681 5680 5678 5676 5674 5672 5670 5668 5668 5667 5669 5668 5666 5665 5667 5668 5669 5667 5666 5665 5663 5662 5660 5658 5657 5656
5696 5694 5693 5692 5692 5691 5689 5687 5686 5686 5685 5683 5682 5681 5680 5679 5678 5676 5675 5672 5670 5667 5665 5663 5662 5661 5660 5658 5658 5659 5656 5658 5660 5661 5659 5659 5659 5658 5657 5655 5653 5652 5651
5690 5689 5687 5687 5686 5686 5682 5680 5680 5680 5678 5677 5676 5676 5675 5674 5673 5671 5670 5667 5665 5662 5660 5658 5656 5654 5653 5653 5652 5652 5649 5649 5648 5653 5651 5651 5653 5652 5652 5650 5649 5648 5647
5684 5683 5682 5681 5680 5678 5676 5675 5674 5674 5673 5673 5671 5670 5671 5671 5668 5666 5664 5662 5660 5659 5657 5654 5651 5649 5648 5648 5646 5645 5644 5643 5644 5647 5645 5644 5646 5645 5647 5646 5645 5644 5642
5679 5678 5677 5677 5675 5673 5670 5669 5669 5669 5669 5668 5667 5666 5665 5665 5664 5660 5659 5657 5656 5655 5653 5651 5649 5648 5646 5645 5643 5641 5640 5640 5642 5642 5642 5638 5640 5640 5642 5642 5641 5640 5638
5673 5673 5672 5672 5670 5667 5665 5664 5663 5664 5664 5663 5662 5662 5661 5659 5657 5655 5653 5652 5651 5650 5649 5647 5645 5644 5642 5640 5638 5636 5635 5633 5633 5636 5637 5634 5634 5634 5635 5636 5636 5635 5634
5668 5667 5667 5666 5665 5663 5659 5658 5657 5658 5657 5657 5656 5655 5654 5653 5651 5649 5648 5647 5645 5644 5644 5643 5640 5640 5639 5637 5636 5633 5631 5629 5629 5629 5632 5630 5629 5628 5627 5630 5631 5630 5628